SL-16 DEB, 32006

Orbit data source: Space-Track

SL-16 DEB, 32006 is space debris in LEO originally from a launch on Thu, 10 Jun 2004 UTC launched from the Tyuratam Missile And Space Complex (TTMTR). Debris objects in space refer to the collection of defunct objects orbiting the Earth. Examples of debris include non-operational satellites, rocket bodies, and fragments generated from explosions, collisions, or faulty payload assembly.

Loading next visibility...
Identifier
32006, 2004-021J
Orbit
LEO
Country
Flag of CISCIS
Related business
Manufacturer
Unknown
Mission
Spacecraft
Bus & Motor
Unknown
Mass
Unknown
Launch date (UTC)
2004-06-10 (22 years ago)
Launch vehicle
Unknown
Launch site
Tyuratam Missile And Space Complex (TTMTR)
Object type
Payload
Rocket body
Debris
Shape & HBR
Unknown shape, 0.1 m
Radar Cross Section
Small (<0.1 m²)

Expand to show TLE details & history
Last TLE update: 1 week ago

TLE from 1 week ago
0 SL-16 DEB
1 32006U 04021J   26112.67476584  .00001701  00000-0  12466-2 0  9997
2 32006  71.0939  87.2582 0168100  14.2869 346.2908 13.90710606648788
Epoch: 2026-04-22T16:11Z
TLE epoch observation values (Epoch: 2026-04-22T16:11:39.768Z)
Latitude
-0.00009°
Longitude
-6.39033°
Altitude
809.336 km
Speed
7.509 km/s
True Right ascension
05h 49m 01s
True Declination
0° 00' 00"
Sunlit
Object was in daylight at epoch
Visualization orbit readout
Latitude
Unknown
Longitude
Unknown
Altitude
Unknown
Speed
Unknown
Apparent Right ascension
Unknown
Apparent Declination
Unknown
Sunlit
N/A
Visualization observer readout
Local Sidereal Time
23:07:24
Azimuth
Unknown
Elevation
Unknown
Doppler factor
Unknown
Orbital elements
Apogee altitude
1,046.831 km
Perigee altitude
801.33 km
Semi-major axis
7,302.217 km
Eccentricity
0.01681
Inclination
71.0939°
RAAN
87.2582°
Arg. of periapsis
14.2869°
True anomaly
345.82478°
Mean anomaly
346.2908°
Eccentric anomaly
346.05875°
Mean motion
3.47825 °/min
Orbital period
103.5 mins
BSTAR
0.0012466
Loading maneuver chart data...
Computing Atmospheric mass density...
Loading historical data...
Loading historical data...
Loading historical data...
Loading historical data...
Loading historical data...
Loading historical data...
Loading historical data...

Documentation

Showing up to 5 results
|